Weather History for Central Park, NY

Change the Weather History Date:

Sunday, October 27, 2013

  Actual Average Record
Temperature  
Mean Temperature 52 °F 54 °F  
Max Temperature 58 °F 60 °F 82 °F (1963)
Min Temperature 46 °F 47 °F 28 °F (1936)
Degree Days  
Heating Degree Days 13 12  
Month to date heating degree days 143 219  
Since 1 July heating degree days 179 264  
Cooling Degree Days 0 0  
Month to date cooling degree days 46 13  
Year to date cooling degree days 1271 1100  
Growing Degree Days 2 (Base 50)    
Moisture  
Dew Point 29 °F    
Average Humidity 42    
Maximum Humidity 53    
Minimum Humidity 30    
Precipitation  
Precipitation 0.00 in 0.14 in 1.88 in (2003)
Month to date precipitation 0.30 3.86  
Year to date precipitation 38.26 41.38  
Snow  
Snow 0.00 in 0.00 in T in (1944)
Month to date snowfall 0.0 0.0  
Since 1 July snowfall 0.0 0.0  
Snow Depth 0.00 in    
Sea Level Pressure  
Sea Level Pressure 29.97 in    
Wind  
Wind Speed 5 mph (West)    
Max Wind Speed 13 mph    
Max Gust Speed 22 mph    
Visibility 10 miles    
Events      
T = Trace of Precipitation, MM = Missing Value Source: NWS Daily Summary

Daily Weather History Graph

Daily Weather History Graph

Search for Another Location

Airport:

Trip Planner

Search our weather history database for the weather conditions in past years. The results will help you decide how hot, cold, wet, or windy it might be!

Date:

Astronomy

Oct. 27, 2013 Rise Set
Actual Time 7:20 AM EDT 5:58 PM EDT
Civil Twilight 6:52 AM EDT 6:26 PM EDT
Nautical Twilight 6:20 AM EDT 6:58 PM EDT
Astronomical Twilight 5:48 AM EDT 7:30 PM EDT
Moon 12:13 AM EDT (10/27) 2:07 PM EDT (10/27)
Length of Visible Light 11h 33m
Length of Day
10h 37m
Last Quarter, 44% of the Moon is Illuminated
Oct 27
Last Quarter
Nov 3
New
Nov 10
First Quarter
Nov 17
Full
Nov 25
Last Quarter

Hourly Weather History & Observations

Time (EDT) Temp. Dew Point Humidity Pressure Visibility Wind Dir Wind Speed Gust Speed Precip Events Conditions
12:51 AM 51.1 °F 28.0 °F 41% 29.89 in 10.0 mi WSW 8.1 mph 18.4 mph N/A   Overcast
1:51 AM 51.1 °F 30.9 °F 46% 29.88 in 10.0 mi Variable 3.5 mph - N/A   Overcast
2:51 AM 51.1 °F 30.0 °F 44% 29.88 in 10.0 mi North - - N/A   Overcast
3:51 AM 50.0 °F 28.9 °F 44% 29.86 in 10.0 mi Variable 4.6 mph - N/A   Overcast
4:51 AM 48.9 °F 28.9 °F 46% 29.87 in 10.0 mi Calm Calm - N/A   Mostly Cloudy
5:51 AM 48.0 °F 30.0 °F 50% 29.89 in 10.0 mi WSW 4.6 mph - N/A   Clear
6:51 AM 48.0 °F 28.9 °F 48% 29.91 in 10.0 mi West 4.6 mph - N/A   Clear
7:51 AM 46.9 °F 30.0 °F 52% 29.93 in 10.0 mi West 5.8 mph - N/A   Clear
8:51 AM 48.0 °F 30.0 °F 50% 29.96 in 10.0 mi West 4.6 mph - N/A   Clear
9:51 AM 50.0 °F 30.9 °F 48% 29.96 in 10.0 mi Variable 6.9 mph 18.4 mph N/A   Clear
10:51 AM 52.0 °F 30.0 °F 43% 29.97 in 10.0 mi Variable 4.6 mph - N/A   Clear
11:51 AM 55.0 °F 30.0 °F 38% 29.98 in 10.0 mi WNW 8.1 mph - N/A   Clear
12:51 PM 55.9 °F 30.0 °F 37% 29.95 in 10.0 mi North - - N/A   Clear
1:51 PM 57.0 °F 28.9 °F 34% 29.94 in 10.0 mi Variable 5.8 mph - N/A   Partly Cloudy
2:51 PM 57.0 °F 27.0 °F 32% 29.95 in 10.0 mi Variable 3.5 mph 18.4 mph N/A   Partly Cloudy
3:51 PM 57.0 °F 27.0 °F 32% 29.96 in 10.0 mi WNW 9.2 mph 19.6 mph N/A   Clear
4:51 PM 55.9 °F 27.0 °F 33% 29.98 in 10.0 mi West 8.1 mph 17.3 mph N/A   Clear
5:51 PM 55.0 °F 27.0 °F 34% 30.00 in 10.0 mi WNW 4.6 mph - N/A   Scattered Clouds
6:51 PM 54.0 °F 28.0 °F 37% 30.03 in 10.0 mi North - - N/A   Scattered Clouds
7:51 PM 52.0 °F 28.9 °F 41% 30.05 in 10.0 mi Calm Calm - N/A   Partly Cloudy
8:51 PM 52.0 °F 28.0 °F 40% 30.07 in 10.0 mi West 6.9 mph - N/A   Clear
9:51 PM 51.1 °F 28.9 °F 43% 30.10 in 10.0 mi West 9.2 mph - N/A   Clear
10:51 PM 50.0 °F 28.0 °F 43% 30.12 in 10.0 mi WNW 6.9 mph - N/A   Clear
11:51 PM 48.9 °F 28.9 °F 46% 30.13 in 10.0 mi West 5.8 mph - N/A   Clear